SCP
0 0 0 0 0 0 0 0 0 0 0 0 0 0 0 0 0 0 0 0 0 0 0 0 0 0 0 0 0 0 0 0 0 0 0 0 0 0
0 0 0 0 0 0 0 0 0 0 0 0 0 0 0 0 0 0 0 0 0 0 0 0 0 0 0 0 0 0 0 0 0 0 0 0 0 0
0 0 0 0 0 0 0 0 0 0 0 0 0 0 0 0 0 0 0 0 0 0 0 0 0 0 0 0 0 0 0 0 0 0 0 0 0 0
0 0 0 0 0 0 0 0 0 0 0 0 0 0 0 0 0 0 0 0 0 0 0 0 0 0 0 0 0 0 0 0 0 0 0 0 0 0
0 0 0 0 0 0 0 0 0 0 0 0 0 0 0 0 0 0 0 0 0 0 0 0 0 0 0 0 0 0 0 0 0 0 0 0 0 0
0 0 0 0 0 0 0 0 0 0 0 0 0 0 0 0 0 0 0 0 0 0 0 0 0 0 0 0 0 0 0 0 0 0 0 0 0 0
0 0 0 0 0 0 0 0 0 0 0 0 0 0 0 0 0 0 0 0 0 0 0 0 0 0 0 0 0 0 0 0 0 0 0 0 0 0
0 0 0 0 0 0 0 0 0 0 0 0 0 0 0 0 0 0 0 0 0 0 0 0 0 0 0 0 0 0 0 0 0 0 0 0 0 0
0 0 0 0 0 0 0 0 0 0 0 0 0 0 0 0 0 0 0 0 0 0 0 0 0 0 0 0 0 0 0 0 0 0 0 0 0 0
0 0 0 0 0 0 0 0 0 0 0 0 0 0 0 0 0 0 0 0 0 0 0 0 0 0 0 0 0 0 0 0 0 0 0 0 0 0
0 0 0 0 0 0 0 0 0 0 0 0 0 0 0 0 0 0 0 0 0 0 0 0 0 0 0 0 0 0 0 0 0 0 0 0 0 0
0 0 0 0 0 0 0 0 0 0 0 0 0 0 0 0 0 0 0 0 0 0 0 0 0 0 0 0 0 0 0 0 0 0 0 0 0 0
0 0 0 0 0 0 0 0 0 0 0 0 0 0 0 0 0 0 0 0 0 0 0 0 0 0 0 0 0 0 0 0 0 0 0 0 0 0
0 0 0 0 0 0 0 0 0 0 0 0 0 0 0 0 0 0 0 0 0 0 0 0 0 0 0 0 -0 0 0 0 0 0 0 0 0 0
0 0 0 0 0 0 0 0 0 0 0 0 0 0 0 0 0 0 0 0 0 0 0 0 0 0 0 -0 0 0 0 0 0 0 0 0 0 0
0 0 0 0 0 0 0 0 0 0 0 0 0 0 0 0 0 0 0 0 0 0 0 0 0 0 0 0 0 0 0 0 0 0 0 0 0 0
0 0 0 0 0 0 0 0 0 0 0 0 0 0 0 0 0 0 0 0 0 0 0 0 0 0 0 0 0 0 0 0 0 0 0 0 0 0
0 0 0 0 0 0 0 0 0 0 0 0 0 0 0 0 0 0 0 0 0 0 0 0 0 0 0 0 -0 0 0 0 0 0 0 0 0 0
0 0 0 0 0 0 0 0 0 0 0 0 0 0 0 0 0 0 0 0 0 0 0 0 0 0 0 0 0 0 0 0 0 0 0 0 0 0
0 0 0 0 0 0 0 0 0 0 0 0 0 0 0 0 0 0 0 0 0 0 0 0 0 0 0 0 0 0 -0 0 0 0 0 0 0 0
0 0 0 0 0 0 0 0 0 0 0 0 0 0 0 0 0 0 0 0 0 0 0 0 0 0 0 0 0 0 0 0 0 0 0 0 0 0
0 0 0 0 0 0 0 0 0 0 0 0 0 0 0 0 0 0 0 0 0 0 0 0 0 0 0 0 0 0 0 0 0 0 0 0 0 0
0 0 0 0 0 0 0 0 0 0 0 0 0 0 0 0 0 0 0 0 0 0 0 0 0 0 0 0 0 0 0 0 0 0 0 0 0 0
Wind_Speed_500mb
71 70 73 81 81 81 86 83 77 38 41 36 25 18 10 8 15 21 27 25 28 28 28 30 30 29 31 30 28 26 24 21 20 23 27 27 28 32
81 75 77 77 93 78 80 81 74 61 35 39 22 11 10 19 23 21 19 23 25 29 25 25 25 27 30 29 28 27 22 21 27 26 25 28 32 32
81 79 77 72 67 56 46 34 21 28 35 32 18 19 21 19 15 17 18 19 20 23 23 24 25 26 28 28 26 23 20 22 25 25 24 29 31 33
81 65 62 51 44 34 34 32 29 21 19 19 29 27 20 15 13 12 13 16 18 20 19 19 22 25 25 25 27 24 22 23 29 28 31 35 36 39
54 52 45 39 32 27 25 17 13 14 19 22 29 23 16 7 8 8 10 13 14 16 15 22 24 24 22 26 24 13 16 29 28 36 34 36 40 44
45 42 44 39 35 28 22 22 27 24 22 24 21 19 14 9 4 4 6 8 10 11 17 21 22 20 22 23 13 20 21 20 32 34 39 43 43 45
51 46 42 38 33 30 29 29 27 24 23 21 16 14 12 6 4 5 5 5 7 9 13 17 16 17 19 14 13 16 22 35 37 40 41 44 47 49
60 51 44 40 40 36 32 29 29 25 19 14 13 10 7 3 2 6 8 8 7 10 12 15 12 19 20 13 18 18 37 41 42 44 45 44 48 52
57 51 47 39 35 33 32 28 25 20 15 10 8 7 5 4 6 10 11 10 10 10 12 11 13 19 22 19 15 27 36 40 44 47 49 51 55 59
53 46 44 44 36 29 25 22 20 17 13 10 7 6 6 7 9 11 13 15 15 15 13 7 14 19 17 13 13 42 41 44 45 47 49 52 60 63
48 44 38 31 30 25 19 16 17 14 9 6 7 8 8 9 11 14 15 15 13 13 6 15 13 18 11 14 22 38 40 46 50 52 50 59 62 66
49 38 36 27 20 22 17 14 10 9 5 6 9 12 13 14 14 13 13 15 15 11 15 20 19 26 14 9 40 39 46 50 55 51 57 58 62 68
50 39 33 30 25 19 14 10 4 3 3 7 10 11 12 14 14 15 15 14 11 10 16 21 24 28 24 36 43 39 54 58 56 55 64 61 61 62
41 42 33 24 16 12 10 3 2 3 5 7 9 9 11 14 16 15 15 14 14 15 18 23 27 32 39 47 51 59 56 56 50 62 65 66 65 64
37 34 24 18 12 10 6 2 4 6 6 7 9 11 14 16 15 14 13 14 16 19 22 24 29 33 39 45 56 56 64 62 41 63 66 71 72 71
30 22 17 13 10 6 2 1 3 4 6 10 13 15 13 12 11 11 12 13 15 20 25 30 33 38 42 42 48 48 51 56 71 70 72 75 74 64
19 18 13 7 3 3 5 5 5 6 10 12 14 14 12 10 9 8 10 13 16 22 26 31 36 40 40 46 50 45 56 64 69 76 76 80 78 69
17 11 7 7 9 10 9 8 9 11 12 13 13 13 10 8 8 10 13 19 24 30 36 42 47 50 52 47 42 57 58 68 73 76 75 84 91 82
14 12 14 15 15 12 12 13 15 12 11 11 10 8 7 9 11 15 22 26 28 32 36 42 46 50 57 60 59 46 62 71 76 77 76 76 84 89
17 17 16 16 15 17 18 16 13 11 10 9 10 10 11 13 17 20 24 28 32 33 35 37 40 44 48 54 64 66 54 63 69 76 77 77 74 67
18 17 15 17 19 19 18 16 14 12 12 13 13 13 13 14 17 21 26 29 33 37 39 39 38 38 44 50 58 71 68 53 56 65 68 71 73 73
16 18 21 22 21 21 19 17 15 17 18 16 15 13 13 15 19 24 28 32 35 39 39 37 35 38 44 49 61 67 74 73 66 65 59 51 54 69
26 28 27 24 22 22 21 20 21 21 18 15 13 12 13 17 22 27 32 35 36 34 36 39 42 46 46 52 60 68 72 77 78 85 78 61 56 55
Wind_Direction_500mb
245 248 251 250 250 247 251 245 240 176 174 175 172 188 231 302 293 290 292 300 306 301 315 319 323 325 322 329 327 330 337 360 1 348 342 347 346 347
244 248 256 256 245 245 231 231 216 210 151 168 174 186 245 257 269 281 297 307 306 300 318 323 322 318 320 321 328 332 331 331 335 339 340 345 348 349
243 245 245 235 226 210 197 180 176 156 149 138 183 209 229 250 275 290 299 300 299 316 330 324 322 318 319 326 333 332 338 335 337 339 344 338 340 343
240 230 211 192 178 173 168 160 157 154 132 175 200 206 209 234 259 292 307 321 324 322 321 309 309 311 317 325 330 331 335 340 335 341 340 342 342 340
193 169 169 172 163 153 152 139 111 147 177 193 195 193 193 225 274 301 323 320 310 304 309 312 313 314 322 329 330 334 301 318 338 334 341 338 335 334
170 173 170 169 162 159 137 154 171 168 165 181 184 176 186 198 224 274 279 288 294 292 310 310 309 312 325 324 318 302 325 328 326 337 338 337 333 333
169 165 157 144 130 137 160 156 148 152 157 165 165 159 148 158 228 269 298 319 299 278 301 306 296 313 331 326 314 316 341 334 335 335 334 333 331 334
162 145 131 139 145 148 148 143 138 135 133 141 154 153 141 131 303 315 333 335 324 289 298 299 302 325 331 317 302 335 337 334 335 338 337 336 333 335
135 132 137 141 144 140 136 134 131 127 131 135 142 124 89 42 0 344 333 331 331 315 320 294 309 324 322 317 311 335 330 329 335 334 335 336 334 334
126 135 137 134 129 127 127 128 126 131 118 104 91 54 31 10 354 344 338 342 338 330 325 313 318 334 321 306 320 335 332 333 332 336 336 334 334 334
129 124 122 126 136 133 129 133 124 107 96 72 52 29 16 10 3 348 339 331 334 325 310 340 337 341 304 278 316 332 331 331 335 336 334 335 337 335
138 136 134 128 140 148 142 120 103 96 71 28 10 6 6 2 358 346 338 340 354 344 336 344 341 357 337 283 331 332 335 337 339 334 334 339 340 339
138 143 154 154 144 138 134 128 101 45 18 10 6 0 355 352 349 345 343 344 350 340 332 342 342 347 344 328 339 338 340 336 336 331 335 338 342 344
158 152 147 143 139 142 149 120 26 11 19 7 352 343 343 344 345 341 337 338 340 343 342 343 345 344 342 340 340 339 337 336 332 335 335 336 341 341
147 142 142 144 152 145 142 93 39 27 2 334 332 342 348 339 327 328 337 344 342 343 340 341 340 339 340 340 336 341 333 339 331 335 336 336 337 340
152 151 144 151 159 159 127 352 338 320 313 325 330 332 323 318 326 338 338 343 340 341 336 335 334 335 334 336 335 335 335 334 337 341 336 331 331 336
153 164 164 161 179 237 244 250 276 298 315 319 321 319 318 325 325 317 329 332 335 336 332 328 328 328 330 332 335 331 334 338 340 337 334 329 330 337
173 185 201 232 243 245 244 259 285 292 299 310 310 305 306 305 316 338 335 337 340 333 332 329 325 325 324 327 340 341 338 337 334 331 332 331 328 334
221 227 231 240 246 250 264 268 264 268 281 292 294 299 301 323 339 339 334 334 333 329 326 324 322 324 326 329 330 351 335 334 333 334 334 331 325 328
234 235 238 244 252 257 258 257 264 277 291 308 304 297 307 318 322 324 325 324 323 321 323 323 321 323 329 329 324 331 339 335 339 333 333 329 327 325
230 234 249 262 264 260 259 264 275 288 299 296 288 289 296 302 309 314 316 317 318 321 324 325 324 322 321 320 324 326 330 336 339 338 332 331 329 333
255 265 274 272 263 262 265 270 279 286 287 278 273 275 286 299 306 309 312 315 318 320 322 325 324 319 319 322 326 327 327 332 335 340 336 330 327 320
272 272 273 264 262 263 265 269 271 270 261 254 259 272 289 298 304 310 313 316 319 324 323 326 325 320 317 320 325 327 328 329 332 336 335 336 331 323
Wind_Speed_850mb
71 70 73 81 81 81 86 83 77 38 41 36 25 18 10 8 15 21 27 25 28 28 28 30 30 29 31 30 28 26 24 21 20 23 27 27 28 32
81 75 77 77 93 78 80 81 74 61 35 39 22 11 10 19 23 21 19 23 25 29 25 25 25 27 30 29 28 27 22 21 27 26 25 28 32 32
81 79 77 72 67 56 46 34 21 28 35 32 18 19 21 19 15 17 18 19 20 23 23 24 25 26 28 28 26 23 20 22 25 25 24 29 31 33
81 65 62 51 44 34 34 32 29 21 19 19 29 27 20 15 13 12 13 16 18 20 19 19 22 25 25 25 27 24 22 23 29 28 31 35 36 39
54 52 45 39 32 27 25 17 13 14 19 22 29 23 16 7 8 8 10 13 14 16 15 22 24 24 22 26 24 13 16 29 28 36 34 36 40 44
45 42 44 39 35 28 22 22 27 24 22 24 21 19 14 9 4 4 6 8 10 11 17 21 22 20 22 23 13 20 21 20 32 34 39 43 43 45
51 46 42 38 33 30 29 29 27 24 23 21 16 14 12 6 4 5 5 5 7 9 13 17 16 17 19 14 13 16 22 35 37 40 41 44 47 49
60 51 44 40 40 36 32 29 29 25 19 14 13 10 7 3 2 6 8 8 7 10 12 15 12 19 20 13 18 18 37 41 42 44 45 44 48 52
57 51 47 39 35 33 32 28 25 20 15 10 8 7 5 4 6 10 11 10 10 10 12 11 13 19 22 19 15 27 36 40 44 47 49 51 55 59
53 46 44 44 36 29 25 22 20 17 13 10 7 6 6 7 9 11 13 15 15 15 13 7 14 19 17 13 13 42 41 44 45 47 49 52 60 63
48 44 38 31 30 25 19 16 17 14 9 6 7 8 8 9 11 14 15 15 13 13 6 15 13 18 11 14 22 38 40 46 50 52 50 59 62 66
49 38 36 27 20 22 17 14 10 9 5 6 9 12 13 14 14 13 13 15 15 11 15 20 19 26 14 9 40 39 46 50 55 51 57 58 62 68
50 39 33 30 25 19 14 10 4 3 3 7 10 11 12 14 14 15 15 14 11 10 16 21 24 28 24 36 43 39 54 58 56 55 64 61 61 62
41 42 33 24 16 12 10 3 2 3 5 7 9 9 11 14 16 15 15 14 14 15 18 23 27 32 39 47 51 59 56 56 50 62 65 66 65 64
37 34 24 18 12 10 6 2 4 6 6 7 9 11 14 16 15 14 13 14 16 19 22 24 29 33 39 45 56 56 64 62 41 63 66 71 72 71
30 22 17 13 10 6 2 1 3 4 6 10 13 15 13 12 11 11 12 13 15 20 25 30 33 38 42 42 48 48 51 56 71 70 72 75 74 64
19 18 13 7 3 3 5 5 5 6 10 12 14 14 12 10 9 8 10 13 16 22 26 31 36 40 40 46 50 45 56 64 69 76 76 80 78 69
17 11 7 7 9 10 9 8 9 11 12 13 13 13 10 8 8 10 13 19 24 30 36 42 47 50 52 47 42 57 58 68 73 76 75 84 91 82
14 12 14 15 15 12 12 13 15 12 11 11 10 8 7 9 11 15 22 26 28 32 36 42 46 50 57 60 59 46 62 71 76 77 76 76 84 89
17 17 16 16 15 17 18 16 13 11 10 9 10 10 11 13 17 20 24 28 32 33 35 37 40 44 48 54 64 66 54 63 69 76 77 77 74 67
18 17 15 17 19 19 18 16 14 12 12 13 13 13 13 14 17 21 26 29 33 37 39 39 38 38 44 50 58 71 68 53 56 65 68 71 73 73
16 18 21 22 21 21 19 17 15 17 18 16 15 13 13 15 19 24 28 32 35 39 39 37 35 38 44 49 61 67 74 73 66 65 59 51 54 69
26 28 27 24 22 22 21 20 21 21 18 15 13 12 13 17 22 27 32 35 36 34 36 39 42 46 46 52 60 68 72 77 78 85 78 61 56 55
Wind_Direction_850mb
245 248 251 250 250 247 251 245 240 176 174 175 172 188 231 302 293 290 292 300 306 301 315 319 323 325 322 329 327 330 337 360 1 348 342 347 346 347
244 248 256 256 245 245 231 231 216 210 151 168 174 186 245 257 269 281 297 307 306 300 318 323 322 318 320 321 328 332 331 331 335 339 340 345 348 349
243 245 245 235 226 210 197 180 176 156 149 138 183 209 229 250 275 290 299 300 299 316 330 324 322 318 319 326 333 332 338 335 337 339 344 338 340 343
240 230 211 192 178 173 168 160 157 154 132 175 200 206 209 234 259 292 307 321 324 322 321 309 309 311 317 325 330 331 335 340 335 341 340 342 342 340
193 169 169 172 163 153 152 139 111 147 177 193 195 193 193 225 274 301 323 320 310 304 309 312 313 314 322 329 330 334 301 318 338 334 341 338 335 334
170 173 170 169 162 159 137 154 171 168 165 181 184 176 186 198 224 274 279 288 294 292 310 310 309 312 325 324 318 302 325 328 326 337 338 337 333 333
169 165 157 144 130 137 160 156 148 152 157 165 165 159 148 158 228 269 298 319 299 278 301 306 296 313 331 326 314 316 341 334 335 335 334 333 331 334
162 145 131 139 145 148 148 143 138 135 133 141 154 153 141 131 303 315 333 335 324 289 298 299 302 325 331 317 302 335 337 334 335 338 337 336 333 335
135 132 137 141 144 140 136 134 131 127 131 135 142 124 89 42 0 344 333 331 331 315 320 294 309 324 322 317 311 335 330 329 335 334 335 336 334 334
126 135 137 134 129 127 127 128 126 131 118 104 91 54 31 10 354 344 338 342 338 330 325 313 318 334 321 306 320 335 332 333 332 336 336 334 334 334
129 124 122 126 136 133 129 133 124 107 96 72 52 29 16 10 3 348 339 331 334 325 310 340 337 341 304 278 316 332 331 331 335 336 334 335 337 335
138 136 134 128 140 148 142 120 103 96 71 28 10 6 6 2 358 346 338 340 354 344 336 344 341 357 337 283 331 332 335 337 339 334 334 339 340 339
138 143 154 154 144 138 134 128 101 45 18 10 6 0 355 352 349 345 343 344 350 340 332 342 342 347 344 328 339 338 340 336 336 331 335 338 342 344
158 152 147 143 139 142 149 120 26 11 19 7 352 343 343 344 345 341 337 338 340 343 342 343 345 344 342 340 340 339 337 336 332 335 335 336 341 341
147 142 142 144 152 145 142 93 39 27 2 334 332 342 348 339 327 328 337 344 342 343 340 341 340 339 340 340 336 341 333 339 331 335 336 336 337 340
152 151 144 151 159 159 127 352 338 320 313 325 330 332 323 318 326 338 338 343 340 341 336 335 334 335 334 336 335 335 335 334 337 341 336 331 331 336
153 164 164 161 179 237 244 250 276 298 315 319 321 319 318 325 325 317 329 332 335 336 332 328 328 328 330 332 335 331 334 338 340 337 334 329 330 337
173 185 201 232 243 245 244 259 285 292 299 310 310 305 306 305 316 338 335 337 340 333 332 329 325 325 324 327 340 341 338 337 334 331 332 331 328 334
221 227 231 240 246 250 264 268 264 268 281 292 294 299 301 323 339 339 334 334 333 329 326 324 322 324 326 329 330 351 335 334 333 334 334 331 325 328
234 235 238 244 252 257 258 257 264 277 291 308 304 297 307 318 322 324 325 324 323 321 323 323 321 323 329 329 324 331 339 335 339 333 333 329 327 325
230 234 249 262 264 260 259 264 275 288 299 296 288 289 296 302 309 314 316 317 318 321 324 325 324 322 321 320 324 326 330 336 339 338 332 331 329 333
255 265 274 272 263 262 265 270 279 286 287 278 273 275 286 299 306 309 312 315 318 320 322 325 324 319 319 322 326 327 327 332 335 340 336 330 327 320
272 272 273 264 262 263 265 269 271 270 261 254 259 272 289 298 304 310 313 316 319 324 323 326 325 320 317 320 325 327 328 329 332 336 335 336 331 323